Date String (YYYY-MM-DD hh:mm:ss) UTC,Instrument flags,Ambient pressure (hPa),Sample flow (lpm),Bypass flow (lpm),Sample temperature (°C),Ambient temperature (°C),ASC tube jacket temperature (°C),LED temperature (°C),Box temperature (°C),Sample RH (%),Span deviation,Mass concentration (μg/m³),Mass concentration (μg/m³),Mass concentration (μg/m³)
DateTimeUTC,F1_M11,P_M11,Q1_M11,Q2_M11,T1_M11,T2_M11,T3_M11,T4_M11,T5_M11,U1_M11,ZSPAN_M11,X2_M11,X0_M11,X1_M11
2021-10-16 23:00:00,,0833.1,4.98,0.00,30.0,28.6,00.0,39.0,31.8,09.5,0000.0,0005.15,0014.78,0004.26
2021-10-16 23:01:00,,0833.1,5.00,0.00,30.0,28.8,00.0,39.0,31.9,09.5,0000.0,0005.14,0014.72,0004.23
2021-10-16 23:02:00,,0833.2,5.00,0.00,30.1,28.9,00.0,39.1,31.9,09.7,0000.0,0005.13,0014.45,0004.20
2021-10-16 23:03:00,,0833.1,5.00,0.00,30.1,29.1,00.0,39.1,32.0,09.8,0000.0,0005.07,0013.69,0004.16
2021-10-16 23:04:00,,0833.1,5.00,0.00,30.2,29.2,00.0,39.1,32.0,09.7,0000.0,0005.06,0013.88,0004.14
2021-10-16 23:05:00,,0833.1,5.00,0.00,30.2,29.3,00.0,39.1,32.1,09.6,0000.0,0005.09,0013.67,0004.15
2021-10-16 23:06:00,,0833.2,5.00,0.00,30.2,29.3,00.0,39.1,32.1,09.5,0000.0,0005.12,0013.38,0004.17
2021-10-16 23:07:00,,0833.1,5.00,0.00,30.3,29.4,00.0,39.2,32.1,09.4,0000.0,0005.11,0013.81,0004.19
2021-10-16 23:08:00,,0833.1,5.01,0.00,30.3,29.5,00.0,39.2,32.2,09.4,0000.0,0005.11,0013.48,0004.21
2021-10-16 23:09:00,,0833.1,5.01,0.00,30.4,29.5,00.0,39.2,32.2,09.5,0000.0,0005.13,0013.00,0004.24
2021-10-16 23:10:00,,0833.1,4.98,0.00,30.4,29.6,00.0,39.3,32.3,09.4,0000.0,0005.15,0012.11,0004.25
2021-10-16 23:11:00,,0833.1,5.00,0.00,30.4,29.2,00.0,39.3,32.2,09.4,0000.0,0005.19,0011.98,0004.26
2021-10-16 23:12:00,,0833.1,4.99,0.00,30.3,27.0,00.0,39.3,31.5,09.6,0000.0,0005.19,0012.24,0004.25
2021-10-16 23:13:00,,0833.1,5.00,0.00,30.1,25.8,00.0,39.2,31.1,09.6,0000.0,0005.19,0012.13,0004.26
2021-10-16 23:14:00,,0833.1,5.01,0.00,30.0,26.0,00.0,39.2,31.2,09.6,0000.0,0005.24,0012.21,0004.27
2021-10-16 23:15:00,,0833.1,5.00,0.00,29.9,26.5,00.0,39.1,31.3,09.7,0000.0,0005.25,0012.58,0004.28
2021-10-16 23:16:00,,0833.0,4.99,0.00,29.8,27.0,00.0,39.1,31.4,09.7,0000.0,0005.26,0012.81,0004.28
2021-10-16 23:17:00,,0833.0,5.01,0.00,29.9,27.4,00.0,39.0,31.5,09.8,0000.0,0005.23,0012.33,0004.26
2021-10-16 23:18:00,,0833.0,5.00,0.00,29.9,27.8,00.0,39.0,31.6,09.8,0000.0,0005.20,0011.81,0004.22
2021-10-16 23:19:00,,0833.1,5.01,0.00,29.9,28.1,00.0,39.0,31.7,09.8,0000.0,0005.22,0011.70,0004.21
2021-10-16 23:20:00,,0833.1,5.01,0.00,29.9,28.4,00.0,39.0,31.7,09.8,0000.0,0005.25,0012.09,0004.19
2021-10-16 23:21:00,,0833.1,5.00,0.00,30.0,28.6,00.0,39.0,31.8,09.7,0000.0,0005.28,0012.13,0004.18
2021-10-16 23:22:00,,0833.1,5.01,0.00,30.0,28.7,00.0,39.0,31.9,09.6,0000.0,0005.32,0012.23,0004.18
2021-10-16 23:23:00,,0833.0,5.00,0.00,30.1,28.9,00.0,39.0,31.9,09.6,0000.0,0005.30,0012.37,0004.20
2021-10-16 23:24:00,,0833.1,4.99,0.00,30.1,29.0,00.0,39.0,32.0,09.6,0000.0,0005.28,0012.93,0004.22
2021-10-16 23:25:00,,0833.1,4.99,0.00,30.1,29.2,00.0,39.1,32.0,09.6,0000.0,0005.23,0013.04,0004.22
2021-10-16 23:26:00,,0833.1,5.01,0.00,30.2,29.3,00.0,39.1,32.1,09.4,0000.0,0005.24,0012.46,0004.26
2021-10-16 23:27:00,,0833.1,5.00,0.00,30.2,29.4,00.0,39.1,32.1,09.4,0000.0,0005.30,0011.92,0004.31
2021-10-16 23:28:00,,0833.1,4.99,0.00,30.3,29.5,00.0,39.1,32.2,09.4,0000.0,0005.32,0012.12,0004.33
2021-10-16 23:29:00,,0833.0,5.00,0.00,30.3,29.6,00.0,39.2,32.2,09.4,0000.0,0005.32,0012.27,0004.35
2021-10-16 23:30:00,,0833.1,4.99,0.00,30.4,29.6,00.0,39.2,32.2,09.3,0000.0,0005.39,0012.48,0004.38
2021-10-16 23:31:00,,0833.1,5.00,0.00,30.4,29.5,00.0,39.2,32.2,09.3,0000.0,0005.43,0012.01,0004.42
2021-10-16 23:32:00,,0833.0,5.00,0.00,30.3,27.8,00.0,39.2,31.8,09.4,0000.0,0005.43,0011.93,0004.45
2021-10-16 23:33:00,,0833.1,4.99,0.00,30.2,26.8,00.0,39.2,31.4,09.5,0000.0,0005.36,0012.12,0004.44
2021-10-16 23:34:00,,0833.0,5.00,0.00,30.1,27.0,00.0,39.2,31.5,09.5,0000.0,0005.35,0012.12,0004.42
2021-10-16 23:35:00,,0833.1,5.01,0.00,30.0,27.4,00.0,39.1,31.6,09.5,0000.0,0005.38,0012.61,0004.42
2021-10-16 23:36:00,,0833.0,4.99,0.00,30.0,27.8,00.0,39.1,31.7,09.5,0000.0,0005.41,0013.02,0004.45
2021-10-16 23:37:00,,0833.1,5.02,0.00,30.0,28.1,00.0,39.1,31.8,09.5,0000.0,0005.42,0014.52,0004.44
2021-10-16 23:38:00,,0833.1,4.99,0.00,30.1,28.4,00.0,39.1,31.9,09.5,0000.0,0005.43,0015.97,0004.41
2021-10-16 23:39:00,,0833.0,5.00,0.00,30.1,28.6,00.0,39.1,31.9,09.5,0000.0,0005.45,0016.84,0004.42
2021-10-16 23:40:00,,0833.1,5.00,0.00,30.1,28.8,00.0,39.1,32.0,09.4,0000.0,0005.48,0017.05,0004.44
2021-10-16 23:41:00,,0833.1,4.99,0.00,30.2,29.0,00.0,39.1,32.0,09.5,0000.0,0005.40,0017.74,0004.42
2021-10-16 23:42:00,,0833.1,5.00,0.00,30.2,29.1,00.0,39.1,32.1,09.4,0000.0,0005.36,0017.96,0004.39
2021-10-16 23:43:00,,0833.1,5.00,0.00,30.2,29.2,00.0,39.2,32.1,09.4,0000.0,0005.36,0018.81,0004.37
2021-10-16 23:44:00,,0833.1,5.00,0.00,30.3,29.4,00.0,39.2,32.2,09.4,0000.0,0005.37,0018.42,0004.40
2021-10-16 23:45:00,,0833.2,5.00,0.00,30.3,29.5,00.0,39.2,32.2,09.4,0000.0,0005.43,0018.20,0004.42
2021-10-16 23:46:00,,0833.1,5.01,0.00,30.4,29.6,00.0,39.2,32.2,09.4,0000.0,0005.44,0017.40,0004.43
2021-10-16 23:47:00,,0833.1,4.99,0.00,30.4,29.5,00.0,39.3,32.2,09.4,0000.0,0005.44,0016.96,0004.39
2021-10-16 23:48:00,,0833.1,5.00,0.00,30.4,27.7,00.0,39.3,31.8,09.4,0000.0,0005.41,0015.65,0004.37
2021-10-16 23:49:00,,0833.1,5.00,0.00,30.1,25.8,00.0,39.2,31.2,09.5,0000.0,0005.35,0014.37,0004.35
2021-10-16 23:50:00,,0833.1,5.00,0.00,30.0,25.8,00.0,39.2,31.2,09.6,0000.0,0005.34,0013.49,0004.31
2021-10-16 23:51:00,,0833.1,5.00,0.00,29.9,26.3,00.0,39.1,31.2,09.7,0000.0,0005.28,0013.40,0004.28
2021-10-16 23:52:00,,0833.1,4.99,0.00,29.8,26.8,00.0,39.1,31.3,09.7,0000.0,0005.25,0012.66,0004.27
2021-10-16 23:53:00,,0833.1,5.00,0.00,29.8,27.3,00.0,39.0,31.4,09.7,0000.0,0005.26,0012.58,0004.26
2021-10-16 23:54:00,,0833.1,5.01,0.00,29.8,27.6,00.0,39.0,31.5,09.6,0000.0,0005.25,0011.85,0004.26
2021-10-16 23:55:00,,0833.1,4.99,0.00,29.8,28.0,00.0,39.0,31.6,09.6,0000.0,0005.27,0012.61,0004.25
2021-10-16 23:56:00,,0833.1,5.00,0.00,29.9,28.2,00.0,39.0,31.7,09.6,0000.0,0005.26,0013.38,0004.25
2021-10-16 23:57:00,,0833.1,5.01,0.00,29.9,28.5,00.0,39.0,31.7,09.6,0000.0,0005.29,0014.28,0004.26
2021-10-16 23:58:00,,0833.1,5.00,0.00,30.0,28.6,00.0,39.0,31.8,09.6,0000.0,0005.30,0015.15,0004.27
2021-10-16 23:59:00,,0833.1,5.00,0.00,30.0,28.8,00.0,39.0,31.9,09.5,0000.0,0005.33,0015.79,0004.29
